Weather History for KSLC - December, 2011

Change the Weather History Date:

Thursday, December 29, 2011

  Actual Average Record
Temperature  
Mean Temperature 44 °F 29 °F  
Max Temperature 56 °F 37 °F 60 °F (1917)
Min Temperature 32 °F 22 °F -8 °F (1932)
Degree Days  
Heating Degree Days 21 36  
Month to date heating degree days 1055 1006  
Since 1 July heating degree days 2158 2224  
Cooling Degree Days 0 0  
Month to date cooling degree days 0 0  
Year to date cooling degree days 1162 1160  
Moisture  
Dew Point 27 °F    
Average Humidity 58    
Maximum Humidity 78    
Minimum Humidity 37    
Precipitation  
Precipitation T in 0.05 in 0.61 in (1972)
Month to date precipitation 0.03 1.33  
Year to date precipitation 19.14 16.02  
Snow  
Snow 0.00 in 0.40 in 8.00 in (1936)
Month to date snowfall 0.1 12.3  
Since 1 July snowfall 5.6 21.3  
Snow Depth 0.00 in    
Sea Level Pressure  
Sea Level Pressure 30.10 in    
Wind  
Wind Speed 6 mph (SE)    
Max Wind Speed 15 mph    
Max Gust Speed 20 mph    
Visibility 10 miles    
Events Rain    
T = Trace of Precipitation, MM = Missing Value Source: NWS Daily Summary

Daily Weather History Graph

Daily Weather History Graph

Search for Another Location

Airport or City:

Trip Planner

Search our weather history database for the weather conditions in past years. The results will help you decide how hot, cold, wet, or windy it might be!

Date:

Astronomy

Dec. 29, 2011 Rise Set
Actual Time 7:51 AM MST 5:08 PM MST
Civil Twilight 7:20 AM MST 5:39 PM MST
Nautical Twilight 6:46 AM MST 6:13 PM MST
Astronomical Twilight 6:12 AM MST 6:47 PM MST
Moon 10:44 AM MST (12/29) 10:51 PM MST (12/29)
Length of Visible Light 10h 18m
Length of Day
9h 16m
Waxing Crescent, 27% of the Moon is Illuminated
Dec 29
Waxing Crescent
Dec 31
First Quarter
Jan 9
Full
Jan 16
Last Quarter
Jan 23
New

Hourly Weather History & Observations

Time (MST) Temp. Windchill Dew Point Humidity Pressure Visibility Wind Dir Wind Speed Gust Speed Precip Events Conditions
12:53 AM 33.1 °F - 24.1 °F 70% 30.16 in 10.0 mi Calm Calm - N/A   Overcast
1:53 AM 35.1 °F 27.9 °F 23.0 °F 61% 30.12 in 10.0 mi SE 9.2 mph - N/A   Overcast
2:53 AM 39.0 °F 33.4 °F 23.0 °F 53% 30.08 in 10.0 mi SE 8.1 mph - N/A   Overcast
3:53 AM 43.0 °F 37.7 °F 19.9 °F 40% 30.05 in 10.0 mi SE 9.2 mph - N/A   Overcast
4:53 AM 42.1 °F 40.2 °F 23.0 °F 47% 30.08 in 10.0 mi NNW 3.5 mph - N/A   Overcast
5:53 AM 37.9 °F 32.7 °F 24.1 °F 57% 30.08 in 10.0 mi SW 6.9 mph - N/A   Overcast
6:53 AM 39.0 °F 36.8 °F 26.1 °F 60% 30.11 in 10.0 mi East 3.5 mph - 0.00 in   Overcast
7:53 AM 39.2 °F 37.0 °F 28.4 °F 65% 30.11 in 10.0 mi NE 3.5 mph - N/A Rain Light Rain
8:53 AM 42.1 °F 38.4 °F 28.0 °F 58% 30.11 in 10.0 mi SSE 5.8 mph - 0.00 in   Mostly Cloudy
9:53 AM 46.4 °F - 28.4 °F 50% 30.12 in 10.0 mi Calm Calm - N/A   Mostly Cloudy
10:53 AM 46.9 °F - 30.9 °F 54% 30.14 in 10.0 mi East 3.5 mph - N/A   Mostly Cloudy
11:53 AM 50.0 °F - 30.0 °F 46% 30.13 in 10.0 mi Calm Calm - N/A   Mostly Cloudy
12:53 PM 55.0 °F - 34.0 °F 45% 30.12 in 10.0 mi North 6.9 mph - N/A   Mostly Cloudy
1:53 PM 53.6 °F - 32.0 °F 44% 30.10 in 10.0 mi Calm Calm - N/A   Mostly Cloudy
2:53 PM 51.8 °F - 30.2 °F 44% 30.12 in 10.0 mi North 6.9 mph - N/A   Mostly Cloudy
3:53 PM 50.0 °F - 28.9 °F 44% 30.08 in 10.0 mi North 4.6 mph - N/A   Mostly Cloudy
4:53 PM 48.9 °F - 28.0 °F 44% 30.10 in 10.0 mi WSW 3.5 mph - N/A   Mostly Cloudy
5:53 PM 44.1 °F 41.5 °F 28.9 °F 55% 30.10 in 10.0 mi SSW 4.6 mph - N/A   Mostly Cloudy
6:53 PM 45.0 °F 43.5 °F 28.0 °F 52% 30.11 in 10.0 mi SSE 3.5 mph - N/A   Overcast
7:53 PM 44.1 °F 40.8 °F 27.0 °F 51% 30.12 in 10.0 mi SSE 5.8 mph - N/A   Overcast
8:53 PM 43.0 °F 38.8 °F 26.1 °F 51% 30.09 in 10.0 mi ESE 6.9 mph - N/A   Mostly Cloudy
9:53 PM 42.8 °F 38.6 °F 28.4 °F 57% 30.09 in 10.0 mi SE 6.9 mph - N/A   Mostly Cloudy
10:53 PM 39.9 °F 35.1 °F 27.0 °F 60% 30.07 in 10.0 mi SE 6.9 mph - N/A   Mostly Cloudy
11:53 PM 43.0 °F 37.7 °F 27.0 °F 53% 30.05 in 10.0 mi SE 9.2 mph - N/A   Overcast